Location: Cornospital
(48.0620°N, 3.3837°W)
Time: 21:29:24
(UTC+00:00)

Cosmos 1844 Rocket - Pass Details

Date: 17 June 2021
Orbit: 823 x 846 km, 71.0° (Epoch: 03 August)

Event Time Altitude Azimuth Distance (km) Brightness Sun altitude
Rises 22:00:23 0° 329° (NNW) 3,411 8.0 -12.5°
Reaches altitude 10° 22:02:52 10° 325° (NW) 2,474 6.6 -12.7°
Maximum altitude 22:08:24 56° 249° (WSW) 1,007 3.1 -13.1°
Enters shadow 22:12:48 16° 176° (S) 2,060 4.2 -13.5°
